BEIDOU-3 M12 (C26)

Last updated on Dec. 12, 2019, 4:25 a.m. UTC

1 43603U 18067B   19345.54417560  .00000009  00000-0  00000+0 0  9990
2 43603  54.7365 262.1256 0004277 329.8451 210.7862  1.86231376  8825
UTC
Height (km)
Latitude
Longitude
Inclination
Orbital Period
UTC large
Height (km)
Speed (km/s)
/
Latitude / Longitude
Inclination (degrees)
Orbital Period (minutes)
Azimuth
Elevation
Range (km)
Doppler Factor
iOS Compass Heading
iOS Angle

Next 30 passes for location: Hong Kong

Rise time Rise Azimuth (degrees) Set time Set Azimuth (degrees) Duration Max altitude (degrees)

No matching passes for this satellites